Find Hawk 13A

NORAD ID: 67392 Int'l Des: 2026-004 Owner: HE360 Country: US operational
LEOCIRCULARRETROGRADESSO

リアルタイム位置

3D地球を読み込み中...

Hawk 13Aについて

説明を読み込み中...

次回通過

Passes for default location (London). Set your location on the main map for personalized predictions.

高度履歴

Loading altitude history...

軌道要素

1 67392U 26004AF 26106.53069618 .00002864 00000-0 14158-3 0 9994
2 67392 97.4442 106.3155 0005739 168.4229 191.7138 15.18625798 14407
Epoch: Apr 16, 2026 • Age: 31 hours

現在のステータス

高度 511.7 km
速度 7.61 km/s
衛星直下点 38.20°N, 156.45°E
打ち上げ日 Jan 11, 2026
運用期間 0.2 years
タイプ other

技術仕様

分類 Payload
質量 31.00 kg
乾燥質量 30.00 kg
総質量 31.00 kg
長さ 0.45 m
直径 0.30 m
スパン 1.00 m
形状 Box + 2 pan
製造者 UTIAS
バスタイプ Hawk2G
フェーズステータス In Orbit
所有者/国 HE360/US

Most Searched